This is the latest recevied weather packets stored in our database for station/object NB9X. If no packets are shown the sender has not sent any weather packets the latest 10 day(s).
| Time | Temp. | Humidity | Pressure | Rain* | Wind** | Luminosity | Snow |
|---|---|---|---|---|---|---|---|
| 1778159286 | 26.11° C | 100% | 1014.8 hPa | 0 mm | - | - | - |
| 1778158987 | 25.56° C | 100% | 1014.9 hPa | 0 mm | - | - | - |
| 1778158687 | 25.56° C | 100% | 1014.8 hPa | 0 mm | - | - | - |
| 1778158386 | 25.56° C | 100% | 1014.8 hPa | 0 mm | - | - | - |
| 1778158087 | 25.56° C | 100% | 1014.8 hPa | 0 mm | - | - | - |
| 1778157787 | 25.56° C | 100% | 1014.8 hPa | 0 mm | - | - | - |
| 1778157487 | 25° C | 100% | 1014.8 hPa | 0 mm | - | - | - |
| 1778157302 | 24.44° C | 100% | 1014.7 hPa | 0 mm | - | - | - |
| 1778157186 | 24.44° C | 100% | 1014.7 hPa | 0 mm | - | - | - |
| 1778156887 | 25° C | 100% | 1014.7 hPa | 0 mm | - | - | - |
| 1778156587 | 24.44° C | 100% | 1014.8 hPa | 0 mm | - | - | - |
| 1778156287 | 23.89° C | 100% | 1014.6 hPa | 0 mm | - | - | - |
| 1778155987 | 23.89° C | 100% | 1014.6 hPa | 0 mm | - | - | - |
| 1778155687 | 23.89° C | 100% | 1014.6 hPa | 0 mm | - | - | - |
| 1778155387 | 23.89° C | 100% | 1014.5 hPa | 0 mm | - | - | - |
| 1778155087 | 23.33° C | 100% | 1014.5 hPa | 0 mm | - | - | - |
| 1778154787 | 23.33° C | 100% | 1014.5 hPa | 0 mm | - | - | - |
| 1778154667 | 23.33° C | 100% | 1014.6 hPa | 0 mm | - | - | - |
| 1778154487 | 23.33° C | 100% | 1014.6 hPa | 0 mm | - | - | - |
| 1778154187 | 23.33° C | 100% | 1014.6 hPa | 0 mm | - | - | - |
| 1778153887 | 22.78° C | 100% | 1014.5 hPa | 0 mm | - | - | - |
| 1778153587 | 22.78° C | 100% | 1014.5 hPa | 0 mm | - | - | - |
| 1778153287 | 22.22° C | 100% | 1014.5 hPa | 0 mm | - | - | - |
| 1778152987 | 22.78° C | 100% | 1014.4 hPa | 0 mm | - | - | - |
| 1778152687 | 21.67° C | 100% | 1014.3 hPa | 0 mm | - | - | - |
* Rain latest hour (hover to see other rain measurements)
** Current wind speed in m/s (hover to see current wind gust speed)